Lafayette, CO

12:09 PM MDT on August 30, 2016 (GMT -0600)
Erie Municipal Airport

Weather History for KEIK - September, 2013

Change the Weather History Date:

Saturday, September 21, 2013

  Actual Average (KBDU) Record (KBDU)
Temperature  
Mean Temperature 64 °F -  
Max Temperature 83 °F - 90 °F (2015)
Min Temperature 45 °F - 48 °F (2013)
Degree Days  
Heating Degree Days 1    
Month to date heating degree days  
Cooling Degree Days 0    
Month to date cooling degree days  
Growing Degree Days 14 (Base 50)    
Moisture  
Dew Point 45 °F    
Average Humidity 60    
Maximum Humidity 97    
Minimum Humidity 18    
Precipitation  
Precipitation 0.00 in - 0.00 in (2016)
Sea Level Pressure  
Sea Level Pressure 29.96 in    
Wind  
Wind Speed 2 mph (SE)    
Max Wind Speed 13 mph    
Max Gust Speed -    
Visibility 10 miles    
Events      
T = Trace of Precipitation, MM = Missing Value Source: NWS Daily Summary

Daily Weather History Graph

Daily Weather History Graph

Search for Another Location

Airport or City:

Trip Planner

Search our weather history database for the weather conditions in past years. The results will help you decide how hot, cold, wet, or windy it might be!

Date:

Astronomy

Sep. 21, 2013 Rise Set
Actual Time 6:47 AM MDT 6:58 PM MDT
Civil Twilight 6:20 AM MDT 7:25 PM MDT
Nautical Twilight 5:48 AM MDT 7:57 PM MDT
Astronomical Twilight 5:16 AM MDT 8:29 PM MDT
Moon 8:10 PM MDT (9/21) 9:08 AM MDT (9/21)
Length of Visible Light 13h 05m
Length of Day
12h 11m
Waning Gibbous, 94% of the Moon is Illuminated
Sep 21
Waning Gibbous
Sep 26
Last Quarter
Oct 4
New
Oct 11
First Quarter
Oct 18
Full

Hourly Weather History & Observations

Time (MDT) Temp. Windchill Dew Point Humidity Pressure Visibility Wind Dir Wind Speed Gust Speed Precip Events Conditions
12:14 AM 50.7 °F - 47.8 °F 90% 30.07 in 10.0 mi South 3.5 mph - N/A   Clear
12:34 AM 50.2 °F - 47.5 °F 90% 30.07 in 10.0 mi Calm Calm - N/A   Clear
12:54 AM 50.9 °F - 47.5 °F 88% 30.07 in 10.0 mi Calm Calm - N/A   Clear
1:14 AM 52.3 °F - 47.3 °F 83% 30.06 in 10.0 mi Calm Calm - N/A   Clear
1:34 AM 50.9 °F - 46.9 °F 86% 30.06 in 10.0 mi Calm Calm - N/A   Clear
1:54 AM 50.0 °F - 47.3 °F 90% 30.06 in 10.0 mi Calm Calm - N/A   Clear
2:14 AM 50.7 °F - 46.6 °F 86% 30.05 in 10.0 mi Calm Calm - N/A   Clear
2:34 AM 48.9 °F - 46.4 °F 91% 30.04 in 10.0 mi Calm Calm - N/A   Clear
2:54 AM 49.1 °F - 46.4 °F 90% 30.04 in 10.0 mi Calm Calm - N/A   Clear
3:14 AM 48.4 °F - 46.0 °F 92% 30.03 in 10.0 mi Calm Calm - N/A   Clear
3:34 AM 47.8 °F - 46.4 °F 95% 30.03 in 10.0 mi Calm Calm - N/A   Clear
3:54 AM 46.8 °F - 45.5 °F 95% 30.03 in 10.0 mi Calm Calm - N/A   Clear
4:14 AM 46.0 °F - 44.6 °F 95% 30.04 in 10.0 mi Calm Calm - N/A   Clear
4:34 AM 46.2 °F - 44.8 °F 95% 30.03 in 10.0 mi Calm Calm - N/A   Clear
4:54 AM 46.0 °F 44.8 °F 44.8 °F 95% 30.04 in 10.0 mi SSW 3.5 mph - N/A   Clear
5:14 AM 45.5 °F 44.2 °F 44.6 °F 97% 30.04 in 10.0 mi SSW 3.5 mph - N/A   Clear
5:34 AM 45.5 °F - 44.4 °F 96% 30.04 in 10.0 mi Calm Calm - N/A   Clear
5:54 AM 46.0 °F - 44.6 °F 95% 30.03 in 10.0 mi Calm Calm - N/A   Clear
6:14 AM 45.9 °F - 44.1 °F 93% 30.04 in 10.0 mi Calm Calm - N/A   Clear
6:34 AM 45.7 °F - 43.9 °F 93% 30.04 in 10.0 mi Calm Calm - N/A   Clear
6:54 AM 45.1 °F - 43.3 °F 93% 30.04 in 10.0 mi Calm Calm - N/A   Clear
7:14 AM 46.0 °F - 43.7 °F 92% 30.04 in 10.0 mi Calm Calm - N/A   Clear
7:34 AM 47.8 °F - 45.1 °F 90% 30.04 in 10.0 mi South 3.5 mph - N/A   Clear
7:54 AM 50.4 °F - 46.6 °F 87% 30.04 in 10.0 mi Calm Calm - N/A   Clear
8:14 AM 52.7 °F - 47.5 °F 82% 30.04 in 10.0 mi SW 3.5 mph - N/A   Clear
8:34 AM 55.4 °F - 49.5 °F 80% 30.04 in 10.0 mi WSW 3.5 mph - N/A   Clear
8:54 AM 57.2 °F - 48.0 °F 71% 30.03 in 10.0 mi Calm Calm - N/A   Clear
9:14 AM 59.9 °F - 49.1 °F 67% 30.03 in 10.0 mi NNW 4.6 mph - N/A   Clear
9:34 AM 60.8 °F - 48.6 °F 64% 30.03 in 10.0 mi Calm Calm - N/A   Clear
9:54 AM 61.3 °F - 48.4 °F 62% 30.03 in 10.0 mi NNW 3.5 mph - N/A   Clear
10:14 AM 63.5 °F - 49.1 °F 59% 30.03 in 10.0 mi North 3.5 mph - N/A   Clear
10:34 AM 65.5 °F - 47.8 °F 53% 30.03 in 10.0 mi North 3.5 mph - N/A   Clear
10:54 AM 66.6 °F - 47.8 °F 51% 30.02 in 10.0 mi Calm Calm - N/A   Clear
11:14 AM 67.3 °F - 48.7 °F 51% 30.02 in 10.0 mi NNE 3.5 mph - N/A   Clear
11:34 AM 69.4 °F - 49.5 °F 49% 30.01 in 10.0 mi Calm Calm - N/A   Clear
11:54 AM 70.2 °F - 50.2 °F 49% 30.00 in 10.0 mi Calm Calm - N/A   Clear
12:14 PM 72.3 °F - 49.5 °F 44% 29.99 in 10.0 mi Calm Calm - N/A   Clear
12:34 PM 73.9 °F - 50.9 °F 44% 29.98 in 10.0 mi North 4.6 mph - N/A   Clear
12:54 PM 75.9 °F - 50.2 °F 40% 29.98 in 10.0 mi Calm Calm - N/A   Clear
1:14 PM 77.4 °F - 49.1 °F 37% 29.96 in 10.0 mi Calm Calm - N/A   Clear
1:34 PM 79.3 °F - 47.1 °F 32% 29.95 in 10.0 mi East 8.1 mph - N/A   Clear
1:54 PM 80.2 °F - 45.7 °F 30% 29.94 in 10.0 mi Calm Calm - N/A   Clear
2:14 PM 82.0 °F - 39.4 °F 22% 29.93 in 10.0 mi ESE 5.8 mph - N/A   Clear
2:34 PM 81.9 °F - 40.5 °F 23% 29.92 in 10.0 mi ESE 6.9 mph - N/A   Clear
2:54 PM 82.8 °F - 39.9 °F 22% 29.92 in 10.0 mi ESE 6.9 mph - N/A   Clear
3:14 PM 83.3 °F - 37.2 °F 19% 29.91 in 10.0 mi Calm Calm - N/A   Clear
3:34 PM 83.1 °F - 35.1 °F 18% 29.89 in 10.0 mi ENE 3.5 mph - N/A   Clear
3:54 PM 83.1 °F - 35.8 °F 18% 29.89 in 10.0 mi East 5.8 mph - N/A   Clear
4:14 PM 83.5 °F - 37.4 °F 19% 29.88 in 10.0 mi East 9.2 mph - N/A   Clear
4:34 PM 83.7 °F - 37.0 °F 19% 29.87 in 10.0 mi SE 9.2 mph - N/A   Clear
4:54 PM 80.2 °F - 37.4 °F 21% 29.87 in 10.0 mi ESE 11.5 mph - N/A   Clear
5:14 PM 81.0 °F - 37.9 °F 21% 29.87 in 10.0 mi ESE 11.5 mph - N/A   Clear
5:34 PM 81.3 °F - 37.2 °F 21% 29.87 in 10.0 mi SE 10.4 mph - N/A   Clear
5:54 PM 80.8 °F - 37.4 °F 21% 29.86 in 10.0 mi SE 12.7 mph - N/A   Scattered Clouds
6:14 PM 79.0 °F - 39.7 °F 25% 29.86 in 10.0 mi SE 6.9 mph - N/A   Clear
6:34 PM 76.6 °F - 40.1 °F 27% 29.85 in 10.0 mi SE 5.8 mph - N/A   Clear
6:54 PM 75.4 °F - 38.8 °F 27% 29.85 in 10.0 mi SE 6.9 mph - N/A   Clear
7:14 PM 73.0 °F - 39.7 °F 30% 29.85 in 10.0 mi SE 5.8 mph - N/A   Scattered Clouds
7:34 PM 71.1 °F - 39.6 °F 32% 29.85 in 10.0 mi SE 5.8 mph - N/A   Scattered Clouds
7:54 PM 66.9 °F - 46.4 °F 48% 29.86 in 10.0 mi WNW 4.6 mph - N/A   Clear
8:14 PM 66.9 °F - 44.4 °F 44% 29.86 in 10.0 mi Calm Calm - N/A   Clear
8:34 PM 69.1 °F - 41.2 °F 36% 29.86 in 10.0 mi Calm Calm - N/A   Clear
8:54 PM 65.3 °F - 45.5 °F 49% 29.86 in 10.0 mi Calm Calm - N/A   Clear
9:14 PM 64.9 °F - 46.6 °F 51% 29.86 in 10.0 mi Calm Calm - N/A   Clear
9:34 PM 62.2 °F - 48.4 °F 60% 29.85 in 10.0 mi Calm Calm - N/A   Clear
9:54 PM 62.6 °F - 47.5 °F 58% 29.85 in 10.0 mi SW 3.5 mph - N/A   Clear
10:14 PM 59.0 °F - 48.4 °F 68% 29.85 in 10.0 mi Calm Calm - N/A   Clear
10:34 PM 58.1 °F - 48.2 °F 70% 29.85 in 10.0 mi South 4.6 mph - N/A   Clear
10:54 PM 59.4 °F - 47.5 °F 65% 29.85 in 10.0 mi Calm Calm - N/A   Clear
11:14 PM 59.2 °F - 47.3 °F 65% 29.84 in 10.0 mi Calm Calm - N/A   Clear
11:34 PM 59.2 °F - 46.4 °F 63% 29.84 in 10.0 mi Calm Calm - N/A   Clear
11:54 PM 55.8 °F - 48.2 °F 76% 29.83 in 10.0 mi Calm Calm - N/A   Clear